Location: Caltech
(34.1382°N, 118.1253°W)
Time: 17:40:41
(UTC-07:00)

CZ-4B DEB - Visible Passes

Search period start: 19 April 2014 00:00
Search period end: 29 April 2014 00:00
Orbit: 842 x 866 km, 98.8° (Epoch: 19 April)

Date Brightness Start Highest point End Pass type
(mag) Time Alt. Az. Time Alt. Az. Time Alt. Az.
19 Apr 6.7 03:01:24 10° ENE 03:03:37 12° E 03:05:50 10° ESE visible
19 Apr 4.2 04:39:19 10° N 04:44:46 68° WNW 04:48:08 24° SSW visible
20 Apr 4.1 04:28:29 10° NNE 04:33:59 86° WNW 04:37:17 25° SSW visible
21 Apr 4.3 04:17:41 10° NNE 04:23:11 76° ESE 04:26:27 25° S visible
22 Apr 4.6 04:06:56 10° NNE 04:12:21 60° ESE 04:15:36 24° S visible
23 Apr 5.0 03:56:14 10° NNE 04:01:31 47° E 04:04:45 22° SSE visible
23 Apr 5.6 05:38:01 10° NNW 05:41:53 20° WNW 05:45:45 10° WSW visible
24 Apr 5.4 03:45:37 10° NNE 03:50:40 37° E 03:53:54 20° SSE visible
24 Apr 5.4 05:26:48 10° NNW 05:31:11 25° WNW 05:35:34 10° WSW visible
25 Apr 5.8 03:35:04 10° NE 03:39:48 29° E 03:43:03 17° SE visible
25 Apr 5.1 05:15:41 10° N 05:20:27 31° WNW 05:25:07 11° SW visible
26 Apr 6.2 03:24:38 10° NE 03:28:55 23° E 03:32:11 14° SE visible
26 Apr 4.8 05:04:39 10° N 05:09:43 39° WNW 05:14:16 13° SW visible
27 Apr 6.5 03:14:22 10° NE 03:18:00 18° E 03:21:19 11° SE visible
27 Apr 4.5 04:53:40 10° N 04:58:57 49° WNW 05:03:24 15° SW visible
28 Apr 6.7 03:04:22 10° ENE 03:07:05 14° E 03:09:47 10° ESE visible
28 Apr 4.3 04:42:45 10° N 04:48:11 63° WNW 04:52:32 16° SSW visible
